Weather Roundup
Issued by NWS Springfield, MO

Home | Current Version | Previous Version | Text Only | Print | Product List | Glossary On
Versions: 1 2 3 4 5 6 7 8 9 10 11 12 13 14 15 16 17 18 19 20 21 22 23 24 25 26 27 28 29 30 31 32 33 34 35 36 37 38 39 40 41 42 43 44 45 46 47 48 49 50
000
NZUS99 KSGF 282207
HRRSGF

HOURLY WEATHER
NATIONAL WEATHER SERVICE SPRINGFIELD MO
400 PM CST SUN DEC 28 2014

......SGF CWA......

CITY           SKY/WX    TMP DP  RH WIND       PRES   REMARKS
SPRINGFIELD    CLEAR     38  23  55 NE3       30.14F
JOPLIN         SUNNY     38  23  55 CALM      30.17S
WEST PLAINS    PTCLDY    35  26  69 NE5       30.15F WCI  31
ROLLA          CLEAR     35  24  64 CALM      30.15S
OSAGE BEACH    CLEAR     37  23  56 CALM      30.17S

......SURROUNDING SGF CWA......

CITY           SKY/WX    TMP DP  RH WIND       PRES   REMARKS
CHANUTE        SUNNY     39  19  44 S6        30.14F WCI  35
PARSONS        SUNNY     40  18  41 VRB5      30.16F
COFFEYVILLE    SUNNY     39  21  48 S5        30.16S
EMPORIA        MOSUNNY   38  18  44 S7        30.10F WCI  33
GROVE OK       SUNNY     41  27  56 CALM      30.18S
ROGERS AR      SUNNY     39  26  59 MISG      30.15S
SILOAM SPRINGS SUNNY     39  21  48 CALM      30.16S
HARRISON AR    SUNNY     38  23  55 CALM      30.14S
NEAR YELLVILLE MOCLDY    37  25  60 NE3       30.16F

......KANSAS AND MISSOURI......

CITY           SKY/WX    TMP DP  RH WIND       PRES   REMARKS
KANSAS CTY INT MOCLDY    37  18  46 SW5       30.13R WCI  33
DOWNTOWN KC    CLEAR     40  16  37 SW5       30.14S
COLUMBIA       CLEAR     37  23  56 CALM      30.17S
SEDALIA        CLEAR     37  19  48 SW3       30.17S
ST JOSEPH      CLEAR     37  18  46 S7        30.14S WCI  32
ST LOUIS       PTCLDY    36  23  59 CALM      30.20F
SPIRIT OF STL  PTCLDY    36  25  64 CALM      30.19F
KIRKSVILLE     CLEAR     37  18  46 SW5       30.16R WCI  33
WICHITA        SUNNY     42  19  39 S13       30.08F
TOPEKA         MOCLDY    40  20  44 S7        30.13S
OLATHE         CLEAR     37  19  48 S7        30.13S WCI  32

......TENNESSEE......

CITY           SKY/WX    TMP DP  RH WIND       PRES   REMARKS
MEMPHIS        CLOUDY    40  36  86 N8        30.16F WCI  34
NASHVILLE      LGT RAIN  40  38  93 N6        30.16R

......ARKANSAS.......

CITY           SKY/WX    TMP DP  RH WIND       PRES   REMARKS
FAYETTEVILLE   SUNNY     39  25  57 NE6       30.15R WCI  35
FT SMITH       SUNNY     43  26  51 CALM      30.17S
LITTLE ROCK    CLOUDY    40  30  67 N5        30.20R

......OKLAHOMA.......

CITY           SKY/WX    TMP DP  RH WIND       PRES   REMARKS
TULSA          MOSUNNY   40  22  48 SE6       30.15F
PONCA CITY     SUNNY     43  18  36 SE9       30.11F
MCALESTER      SUNNY     44  21  40 N5        30.15F
OKLAHOMA CITY  SUNNY     43  23  45 SE9       30.10F

......IOWA............

CITY           SKY/WX    TMP DP  RH WIND       PRES   REMARKS
DES MOINES     PTCLDY    36  22  56 W3        30.14S
QUAD CITIES    CLEAR     36  17  46 CALM      30.17R

......ILLINOIS........

CITY           SKY/WX    TMP DP  RH WIND       PRES   REMARKS
QUINCY         CLEAR     35  19  52 SW5       30.18R WCI  31
CHICAGO        PTCLDY    34  13  41 W9        30.16R WCI  27




USA.gov is the U.S. government's official web portal to all federal, state and local government web resources and services.